Regional Weather Roundup
Issued by NWS

Home | Current Version | Previous Version | Graphics & Text | Print | Product List | Glossary On
Versions: 1 2 3 4 5 6 7 8 9 10 11 12 13 14 15 16 17 18 19 20 21 22 23 24 25 26 27 28 29 30 31 32 33 34 35 36 37 38 39 40 41 42 43 44 45 46 47 48 49 50
000
ASUS43 KDTX 250410
RWRMI
MICHIGAN HOURLY REGIONAL WEATHER ROUNDUP
NATIONAL WEATHER SERVICE DETROIT/PONTIAC MI
1200 AM EDT TUE APR 25 2017

NOTE: "FAIR" INDICATES FEW OR NO CLOUDS BELOW 12,000 FEET WITH NO
SIGNIFICANT WEATHER AND/OR OBSTRUCTION TO VISIBILITY.

MIZ047>049-052>055-059>063-066>070-074>076-081>083-250500-
SOUTHEAST LOWER MICHIGAN

CITY           SKY/WX    TMP DP  RH WIND       PRES   REMARKS
ADRIAN         PTCLDY    51  45  79 E9        29.88S
ALMA           CLOUDY    46  44  92 NE8       29.89F
ANN ARBOR      CLEAR     54  42  64 E8        29.89R
BAD AXE        CLOUDY    49  35  58 SE9       29.96S
CARO           CLOUDY    50  40  69 E6        29.93F
DETROIT CITY   CLOUDY    53  41  63 SE15      29.92S
DETROIT        CLOUDY    54  40  59 E13G20    29.91S
FLINT          CLOUDY    52  41  66 E8        29.91S
GROSSE ILE     CLOUDY    53  41  64 E8        29.90S
HILLSDALE      PTCLDY    50  41  71 E8        29.86S
HOWELL         CLOUDY    56  35  46 E7        29.89S

CITY           SKY/WX    TMP DP  RH WIND       PRES   REMARKS
JACKSON        CLEAR     54  37  52 E7        29.88S
LAMBERTVILLE   CLOUDY    52  48  86 E3        29.88F
LANSING        PTCLDY    56  32  40 E9        29.88F
LAPEER         FAIR      52  39  59 E5        29.92S
MASON          CLOUDY    56  37  49 E5        29.89S
MONROE         CLOUDY    52  45  77 E10G18    29.89S
MT. CLEMENS    CLOUDY    52  42  67 E14       29.91S
PONTIAC        CLOUDY    54  38  54 SE12      29.89F
PORT HOPE        N/A     51  39  63 SE17      29.94F
PORT HURON     CLOUDY    50  34  53 SE15      29.94S
TRI CITIES     CLOUDY    50  44  80 E8        29.91F
MIDLAND        FAIR      47  42  82 E7        29.91S
TROY           CLOUDY    55  36  49 E10G17    29.93F
SAGINAW HB     CLOUDY    52  37  58 E8        29.90F
$$
MIZ043>046-050>051-056>058-064>065-071>073-077>080-250500-
SOUTHWEST LOWER MICHIGAN

CITY           SKY/WX    TMP DP  RH WIND       PRES   REMARKS
BATTLE CREEK   CLOUDY    58  35  42 E8        29.85F
BENTON HARBOR  CLEAR     58  32  37 E9        29.80F
BIG RAPIDS     CLEAR     49  41  73 SE8       29.87S
COLDWATER      CLEAR     55  37  50 E9        29.85F
FREMONT        FAIR      56  38  51 E7        29.83S
HOLLAND        CLEAR     55  36  48 E8        29.82F
GRAND RAPIDS   CLOUDY    58  36  43 E10       29.84S
IONIA          FAIR      53  42  67 E8        29.86S
KALAMAZOO      CLOUDY    58  32  37 SE9G17    29.83F
LUDINGTON      CLEAR     52  39  61 E5        29.82S
MARSHALL       CLOUDY    54  36  49 E6        29.86S
MOUNT PLEASANT CLOUDY    46  40  78 E6        29.90R
MUSKEGON       CLEAR     55  33  43 E6        29.82F
SOUTH HAVEN    CLEAR     58  32  37 SE6       29.81S
$$
MIZ016>042-250500-
NORTHERN LOWER MICHIGAN

CITY           SKY/WX    TMP DP  RH WIND       PRES   REMARKS
ALPENA         CLOUDY    40  36  86 E7        29.96F
BEAVER ISLAND  CLOUDY    46  35  66 E13       29.88S
BELLAIRE       MOCLDY    53  34  49 CALM      29.89S
CADILLAC       CLEAR     48  39  69 E12       29.88R
CHARLEVOIX     PTCLDY    49  37  61 E14G20    29.92S
FRANKFORT      PTCLDY    56  38  51 SE6       29.83S
GAYLORD        CLOUDY    45  33  63 SE6       29.91F
GRAYLING       CLOUDY    42  34  73 E5        29.92S
HARBOR SPRINGS MOCLDY    45  34  67 E14       29.91S
HOUGHTON LAKE  CLEAR     44  36  73 E8        29.91F
MANISTEE       CLOUDY    55  40  56 E7        29.83S
OSCODA         CLOUDY    48  37  66 SE9       29.95S
PELLSTON       MOCLDY    44  33  65 SE8       29.93S
ROGERS CITY    CLOUDY    44  32  64 SE10      29.97F
TRAVERSE CITY  CLOUDY    56  39  53 E5        29.85S
$$
MIZ007>008-015-250500-
EASTERN UPPER MICHIGAN

CITY           SKY/WX    TMP DP  RH WIND       PRES   REMARKS
KINROSS        PTCLDY    44  32  62 SE15      29.94S
MACKINAC ISLAN MOCLDY    44  31  60 SE13G23   29.94S
NEWBERRY       CLOUDY    43  32  64 SE12G21   29.89S
S. S. MARIE    CLEAR     46  32  58 SE14G20   29.94S
MUNISING         N/A     46  34  62 S6        29.83S
$$
MIZ004>006-011>014-085-250500-
CENTRAL UPPER MICHIGAN

CITY           SKY/WX    TMP DP  RH WIND       PRES   REMARKS
MANISTIQUE     CLOUDY    45  38  77 E16G24    29.85F
ESCANABA       CLOUDY    44  37  76 E7        29.82F
MENOMINEE      PTCLDY    44  38  79 E6        29.81F
SAWYER-GWINN   PTCLDY    44  35  72 S7        29.82S
$$
MIZ001>003-009>011-084-250500-
WESTERN UPPER MICHIGAN

CITY           SKY/WX    TMP DP  RH WIND       PRES   REMARKS
IRON MOUNTAIN  CLOUDY    43  34  70 NE6       29.78F
HOUGHTON       CLOUDY    44  34  67 E9        29.75R
COPPER HARBOR    N/A     47  36  65 S18G30    29.76S
IRONWOOD       CLOUDY    59  37  44 SE9       29.67F
$$

ABBREVIATIONS USED IN REMARKS
   TC - TEMPERATURE IN CELSIUS
  WCI - WIND CHILL INDEX
   HX - HEAT INDEX
  VSB - VISIBILITY





USA.gov is the U.S. government's official web portal to all federal, state and local government web resources and services.